Regional Weather Roundup
Issued by NWS Sterling, VA

Home | Current Version | Previous Version | Graphics & Text | Print | Product List | Glossary On
Versions: 1 2 3 4 5 6 7 8 9 10 11 12 13 14 15 16 17 18 19 20 21 22 23 24 25 26 27 28 29 30 31 32 33 34 35 36 37 38 39 40 41 42 43 44 45 46 47 48 49 50
000
ASUS41 KLWX 301710
RWRLWX

REGIONAL WEATHER ROUNDUP
NATIONAL WEATHER SERVICE BALTIMORE MD/WASHINGTON DC
100 PM EDT THU JUL 30 2015

Note: "FAIR" indicates few or no clouds below 12,000 feet
with no significant weather and/or obstructions to visibility.
 TC=TEMPERATURE CELSIUS

 * =Non NWS site. Station does not report precipitation (e.g. rain,
    snow, etc.), thunder, or fog.

DCZ001-MDZ009-015-VAZ040>042-051-053>054-301800-
WASHINGTON METRO

CITY           SKY/WX    TMP DP  RH WIND       PRES   REMARKS
WASHINGTON NAT PTSUNNY   90  77  65 S14       29.89F HX 103
DULLES         PTSUNNY   88  75  66 S7        29.89F HX  97
ANDREWS AFB    MOSUNNY   90  74  60 SW9       29.89F HX  99
FT BELVOIR     MOSUNNY   89  76  65 VRB6      29.89F HX 100
QUANTICO       MOSUNNY   89  62  39 S7        29.88F
COLLEGE PARK*  MOSUNNY   90  73  58 SW5       29.88F HX  98
LEESBURG*      PTSUNNY   79  77  94 NW15      29.93R THUNDER
MANASSAS*      SUNNY     90  75  62 SW5       29.89F HX 100
GAITHERSBURG*  PTSUNNY   90  75  62 SW5       29.93F HX 100

$$

MDZ006>007-011-014-301800-
BALTIMORE METRO

CITY           SKY/WX    TMP DP  RH WIND       PRES   REMARKS
BWI AIRPORT    CLOUDY    88  74  63 VRB6      29.88F HX  96
MD SCIENCE CTR   N/A     89  74  60 MISG      29.88F HX  98
MARTIN STATE   PTSUNNY   88  81  79 SE14      29.89F HX 105
ANNAPOLIS      MOSUNNY   86  74  67 S16       29.88F HX  94
FORT MEADE*    PTSUNNY   88  73  62 S6        29.91F HX  96

$$

MDZ012-015-019>023-301800-
MARYLAND EASTERN SHORE

CITY           SKY/WX    TMP DP  RH WIND       PRES   REMARKS
OCEAN CITY     MOSUNNY   84  75  74 S9G17     29.94F HX  92
SALISBURY      MOSUNNY   87  72  60 S14       29.93F HX  93
BAY BRIDGE AP*   N/A     86  72  62 S12       29.89F HX  92
CAMBRIDGE*     MOSUNNY   86  72  62 S8        29.92F HX  92
EASTON*        MOSUNNY   90  75  62 SW12G17   29.95F HX 100

$$

MDZ017>025-301800-
SOUTHERN MARYLAND

CITY           SKY/WX    TMP DP  RH WIND       PRES   REMARKS
PATUXENT RIVER PTSUNNY   86  74  67 S12       29.92F HX  94
ST INIGOES     MOSUNNY   87  75  67 S9        29.92F HX  96
LEONARDTOWN*   MOSUNNY   86  72  62 S6        29.93F HX  92

$$

MDZ003>005-301800-
NORTH CENTRAL MARYLAND

CITY           SKY/WX    TMP DP  RH WIND       PRES   REMARKS
FREDERICK*     TSTM      79  75  89 NW12G21   29.94R
HAGERSTOWN APT LGT RAIN  80  75  84 SW8       29.93S
WESTMINSTER*   RAIN      84  79  84 NW15G26   29.93R HX  96

$$

MDZ501>502-301800-
WESTERN MARYLAND

CITY           SKY/WX    TMP DP  RH WIND       PRES   REMARKS
OAKLAND*       MOSUNNY   75  72  88 W8        30.08S
CUMBERLAND*    MOSUNNY   84  75  74 S6        29.97F HX  92

$$

VAZ025>031-301800-
SHENANDOAH VALLEY

CITY           SKY/WX    TMP DP  RH WIND       PRES   REMARKS
WINCHESTER*    CLOUDY    77  72  83 NW5       29.95F
FRONT ROYAL*   CLOUDY    81  73  78 N6        29.94S
LURAY*         PTSUNNY   90  73  58 SW7       29.95F HX  98
NEW MARKET*    PTSUNNY   86  74  67 SW3       29.93F HX  93
STAUNTON*      CLOUDY    87  73  63 S6        29.99F HX  95
WAYNESBORO*    FAIR      81  73  76 SW5       30.00F

$$

WVZ021-048>050-054>055-301800-
EASTERN WEST VIRGINIA PANHANDLE

CITY           SKY/WX    TMP DP  RH WIND       PRES   REMARKS
MARTINSBURG    LGT RAIN  74  71  91 SW6       29.93F FOG
PETERSBURG*    CLOUDY   N/A N/A N/A CALM      29.97S

$$

VAZ036>039-050-301800-
CENTRAL FOOTHILLS

CITY           SKY/WX    TMP DP  RH WIND       PRES   REMARKS
CHARLOTTESVILL PTSUNNY   87  75  67 VRB3      29.93F HX  96
CULPEPER*      MOSUNNY   88  76  67 S5        29.91F HX  98
ORANGE*        PTSUNNY   90  77  66 S6        29.93F HX 102
GORDONSVILLE*  FAIR      86  77  74 SW6       29.92F HX  97
WARRENTON*     FAIR      91  78  65 SW6       29.90F HX 105

$$

VAZ055>057-301800-
NORTH AND CENTRAL PIEDMONT

CITY           SKY/WX    TMP DP  RH WIND       PRES   REMARKS
FREDERICKSBRG* MOSUNNY   92  76  58 SW9       29.90F HX 104
STAFFORD*      MOSUNNY   91  73  56 S9        29.94F HX  99

$$

NCZ024-NYZ072-PAZ021-071-VAZ022-071-301800-
OTHER REGIONAL OBSERVATIONS

CITY           SKY/WX    TMP DP  RH WIND       PRES   REMARKS
NEW YORK CITY  CLOUDY    81  76  84 CALM      29.89F HAZE
PHILADELPHIA   PTSUNNY   88  74  63 S16       29.88F HX  96
PITTSBURGH     MOSUNNY   84  53  34 W9        29.99F
ROANOKE        PTSUNNY   84  73  69 VRB3      30.02F HX  90
RICHMOND       CLOUDY    88  74  63 S9        29.94F HX  96
RALEIGH        MOSUNNY   90  73  57 W5        29.97F HX  98

$$

ANZ530>537-301800-
MARINE OBSERVATIONS

STATION/POSITION TIME  TEMP    WIND        PRES
                       AIR SEA DIR/SP/G
                 (UTC) (F)     (DEG/KT/KT) (MB)
THOMAS PT LIGHT  NOT AVBL
BALT KEY BRIDGE  1600   85     190/  6/  9 1012.4F
COVE POINT       1600   82     180/ 12/ 13 1014.3R
LEWISETTA        1600   85 84  220/ 11/ 13 1013.4F
SOLOMONS ISLAND  1606      83                N/A

$$




USA.gov is the U.S. government's official web portal to all federal, state and local government web resources and services.